Flag for U.S.A. Weather past 2 weeks in Cleveland, Ohio, U.S.A.

Now
43 °F

Passing clouds.


Feels Like: 37 °F
Forecast: 45 / 56 °F
Wind: 10 mph from Southwest

Location: Cleveland-Hopkins International Airport

Current Time: Apr 21, 2015 at 6:47:12 AM

Latest Report: Apr 21, 2015 at 5:51 AM


Visibility: 10 mi

Pressure: 29.69 "Hg

Humidity: 71%

Dew point: 34 °F

Location of ClevelandLocation

Historic Weather in Cleveland — Graph

°F

Cleveland temperature yesterday

Maximum temperature yesterday: 66 °F (at 1:51 PM)
Minimum temperature yesterday: 47 °F (at 11:51 PM)
Average temperature yesterday: 59 °F

Past Weeks' High & Low Weather Summary

 TemperatureHumidityPressure
High79 °F (Apr 13, 3:51 PM)100% (Apr 9, 4:51 AM)30.38 "Hg (Apr 9, 4:51 AM)
Low37 °F (Apr 8, 9:01 PM)23% (Apr 15, 1:51 PM)29.37 "Hg (Apr 20, 3:51 AM)
Average54 °F64%30.04 "Hg
* Reported Apr 6 4:51 AM — Apr 21 4:51 AM, Cleveland, Weather by CustomWeather, © 2015

Note: Actual official high and low records may vary slightly from our data, if they occured in-between our weather recording intervals... More about our weather records

Advertising

Cleveland weather history for previous 24 hours

 ConditionsComfort  
Time TempWeatherWind HumidityBarometerVisibility
4:51 AM
Tue, Apr 21
43 °FPassing clouds.13 mph68%29.69 "Hg10 mi
3:51 AM44 °FPassing clouds.17 mph60%29.68 "Hg10 mi
2:51 AM46 °FPartly cloudy.20 mph58%29.67 "Hg10 mi
1:51 AM45 °FPassing clouds.15 mph65%29.66 "Hg10 mi
12:51 AM47 °FPassing clouds.13 mph66%29.66 "Hg10 mi
11:51 PM
Mon, Apr 20
47 °FClear.14 mph64%29.65 "Hg10 mi
10:51 PM48 °FPassing clouds.20 mph63%29.64 "Hg10 mi
9:51 PM50 °FPartly cloudy.16 mph66%29.63 "Hg10 mi
8:51 PM52 °FPartly sunny.21 mph64%29.59 "Hg10 mi
7:51 PM55 °FBroken clouds.21 mph57%29.55 "Hg10 mi
6:51 PM56 °FMostly cloudy.25 mph62%29.52 "Hg10 mi
5:51 PM60 °FBroken clouds.21 mph60%29.47 "Hg10 mi
4:51 PM62 °FBroken clouds.23 mph58%29.46 "Hg10 mi
3:51 PM63 °FBroken clouds.25 mph73%29.42 "Hg10 mi
2:51 PM65 °FLight rain. Broken clouds.21 mph68%29.40 "Hg10 mi
1:51 PM66 °FPartly sunny.18 mph65%29.39 "Hg10 mi
12:51 PM63 °FPartly sunny.20 mph78%29.39 "Hg10 mi
11:51 AM64 °FCloudy.16 mph73%29.39 "Hg10 mi
10:51 AM60 °FLight rain. Cloudy.8 mph86%29.41 "Hg8 mi
9:51 AM62 °FMostly cloudy.12 mph73%29.41 "Hg10 mi
8:51 AM63 °FPartly sunny.16 mph70%29.41 "Hg10 mi
7:51 AM62 °FOvercast.18 mph70%29.43 "Hg10 mi
6:51 AM61 °FPassing clouds.14 mph81%29.40 "Hg10 mi
Weather by CustomWeather, © 2015

See weather overviewHow to use our weather pages